Torna al catalogo

CZ-6A DEB

AttivoSSO
NORAD 56638·DEBRIS·🇨🇳 China

Lanciato Nov 11, 2022 da Taiyuan Satellite Launch Center

Loading…

Prossimi Passaggi (prossime 24 ore)

TLE

In scadenzaSource: Space-Track

Epoca: Sep 10, 2026, 07:38 UTC

1 56638U 22151AFN 26253.31805641  .00000367  00000-0  19658-3 0  9993
2 56638  98.8227 273.1274 0050851 117.0174 243.6205 14.18454647174864

Traccia CZ-6A DEB in tempo reale con AllMySat

Download on the App Store